Weather History for Poplar Bluff, MO

Change the Weather History Date:

Wednesday, October 23, 2013

  Actual Average Record
Temperature  
Mean Temperature 48 °F -  
Max Temperature 60 °F 68 °F 92 °F (1927)
Min Temperature 39 °F 43 °F 22 °F (1952)
Degree Days  
Heating Degree Days 17    
Moisture  
Dew Point 37 °F    
Average Humidity 64    
Maximum Humidity 83    
Minimum Humidity 37    
Precipitation  
Precipitation 0.00 in - - ()
Sea Level Pressure  
Sea Level Pressure 30.10 in    
Wind  
Wind Speed 6 mph (NW)    
Max Wind Speed 13 mph    
Max Gust Speed 18 mph    
Visibility 10 miles    
Events      
Averages and records for this station are not official NWS values.
T = Trace of Precipitation, MM = Missing Value Source: NWS Daily Summary

Daily Weather History Graph

Daily Weather History Graph

Search for Another Location

Airport:

Trip Planner

Search our weather history database for the weather conditions in past years. The results will help you decide how hot, cold, wet, or windy it might be!

Date:

Astronomy

Oct. 23, 2013 Rise Set
Actual Time 7:16 AM CDT 6:14 PM CDT
Civil Twilight 6:50 AM CDT 6:40 PM CDT
Nautical Twilight 6:19 AM CDT 7:10 PM CDT
Astronomical Twilight 5:49 AM CDT 7:40 PM CDT
Moon 9:49 PM CDT (10/23) 11:29 AM CDT (10/23)
Length of Visible Light 11h 50m
Length of Day
10h 57m
Waning Gibbous, 79% of the Moon is Illuminated
Oct 23
Waning Gibbous
Oct 26
Last Quarter
Nov 3
New
Nov 9
First Quarter
Nov 17
Full

Hourly Weather History & Observations

Time (CDT) Temp. Windchill Dew Point Humidity Pressure Visibility Wind Dir Wind Speed Gust Speed Precip Events Conditions
12:53 AM 48.0 °F - 37.9 °F 68% 29.96 in 10.0 mi NW 4.6 mph - N/A   Clear
1:53 AM 48.0 °F - 37.9 °F 68% 30.00 in 10.0 mi WNW 4.6 mph - N/A   Clear
2:53 AM 46.9 °F - 37.0 °F 68% 30.01 in 10.0 mi NNW 11.5 mph - N/A   Clear
3:53 AM 45.0 °F 38.9 °F 35.1 °F 68% 30.02 in 10.0 mi NNW 12.7 mph 18.4 mph N/A   Clear
4:53 AM 43.0 °F 38.2 °F 34.0 °F 71% 30.04 in 10.0 mi NW 8.1 mph - N/A   Clear
5:53 AM 41.0 °F 36.4 °F 34.0 °F 76% 30.07 in 10.0 mi NNW 6.9 mph - N/A   Clear
6:53 AM 39.0 °F 34.8 °F 34.0 °F 82% 30.10 in 10.0 mi NNW 5.8 mph - N/A   Clear
7:53 AM 42.1 °F 40.2 °F 35.1 °F 76% 30.12 in 10.0 mi NW 3.5 mph - N/A   Scattered Clouds
8:53 AM 44.1 °F 40.8 °F 36.0 °F 73% 30.16 in 10.0 mi WNW 5.8 mph - N/A   Overcast
9:53 AM 48.0 °F - 35.1 °F 61% 30.17 in 10.0 mi NW 5.8 mph - N/A   Overcast
10:41 AM 48.2 °F - 35.6 °F 62% 30.16 in 10.0 mi WNW 9.2 mph - N/A   Overcast
10:50 AM 48.2 °F - 35.6 °F 62% 30.16 in 10.0 mi NW 8.1 mph - N/A   Overcast
10:53 AM 50.0 °F - 36.0 °F 59% 30.16 in 10.0 mi NW 8.1 mph - N/A   Mostly Cloudy
11:53 AM 53.1 °F - 36.0 °F 52% 30.16 in 10.0 mi North - - N/A   Unknown
12:53 PM 55.0 °F - 35.1 °F 47% 30.13 in 10.0 mi Variable 4.6 mph - N/A   Partly Cloudy
1:53 PM 57.0 °F - 33.1 °F 40% 30.12 in 10.0 mi WSW 5.8 mph - N/A   Clear
2:53 PM 57.9 °F - 33.1 °F 39% 30.09 in 10.0 mi Variable 3.5 mph - N/A   Clear
3:53 PM 57.9 °F - 32.0 °F 37% 30.09 in 10.0 mi Variable 3.5 mph - N/A   Partly Cloudy
4:53 PM 55.9 °F - 32.0 °F 40% 30.09 in 10.0 mi West 5.8 mph - N/A   Scattered Clouds
5:53 PM 54.0 °F - 34.0 °F 47% 30.09 in 10.0 mi Calm Calm - N/A   Mostly Cloudy
6:53 PM 52.0 °F - 41.0 °F 66% 30.07 in 10.0 mi Calm Calm - N/A   Scattered Clouds
7:53 PM 51.1 °F - 43.0 °F 74% 30.09 in 10.0 mi Calm Calm - N/A   Overcast
8:53 PM 50.0 °F - 45.0 °F 83% 30.10 in 10.0 mi Calm Calm - N/A   Overcast
9:53 PM 50.0 °F - 45.0 °F 83% 30.12 in 10.0 mi North 3.5 mph - N/A   Overcast
10:53 PM 51.1 °F - 44.1 °F 77% 30.12 in 10.0 mi Calm Calm - N/A   Overcast
11:53 PM 50.0 °F - 44.1 °F 80% 30.12 in 10.0 mi Calm Calm - N/A   Overcast